Wind_Speed
25 26 28 29 31 34 36 36 36 36 36 36 37 38 37 37 37 36 34 31 30 29 28 28 28 27 24 24 26 26 25 25 26 26 24 23 26 29 27 25 24 26
26 27 29 31 33 36 36 36 37 37 36 36 38 38 38 39 38 37 33 29 28 29 28 27 26 25 24 24 26 26 25 24 26 26 24 22 24 27 26 24 25 25
27 28 30 32 34 36 36 35 36 37 37 38 39 39 39 38 37 35 31 27 27 28 27 26 24 23 23 24 25 25 25 24 25 27 25 24 25 27 27 27 27 26
27 29 31 33 35 35 34 34 35 37 38 39 40 41 39 36 34 32 28 25 24 23 23 23 22 21 22 23 24 25 24 23 24 27 26 25 26 28 30 29 28 27
28 30 32 33 34 34 33 33 35 36 37 38 40 42 39 33 29 28 26 23 19 18 19 20 20 21 22 23 24 23 22 22 24 26 26 27 27 30 32 31 29 29
29 30 32 33 33 33 32 33 34 35 36 39 41 41 36 29 25 24 23 19 15 15 17 18 19 20 21 22 23 22 21 21 23 25 26 29 29 31 32 30 29 28
29 30 31 32 33 32 32 33 34 35 36 39 42 39 31 25 22 20 18 16 15 15 15 16 18 20 21 22 21 21 21 21 23 25 27 30 32 33 31 28 26 25
29 30 30 31 32 31 31 32 33 34 36 37 40 37 28 21 18 17 16 16 17 16 15 15 17 18 19 20 21 21 21 22 24 24 25 26 29 30 27 24 23 22
29 30 30 30 31 31 31 32 32 33 35 36 37 35 28 19 16 16 16 17 18 18 16 14 15 17 19 20 20 21 21 23 24 23 21 20 21 22 21 21 20 20
29 30 29 29 30 30 30 32 32 32 34 34 35 34 28 21 16 16 17 18 18 18 16 15 16 18 20 20 19 19 20 22 22 23 22 20 19 20 19 19 17 17
29 29 28 28 30 30 30 31 32 32 32 33 34 33 29 23 18 16 15 16 18 17 15 15 16 18 19 20 19 19 19 20 20 21 21 21 21 21 21 19 18 18
29 29 28 28 30 31 30 30 31 31 31 32 33 32 30 25 20 16 15 15 17 19 16 14 15 17 18 18 19 19 18 17 18 18 19 21 21 21 21 21 20 19
28 29 28 28 30 31 31 30 30 31 31 31 32 31 30 28 23 19 18 18 18 19 18 15 15 15 15 15 16 18 17 17 16 17 18 20 20 19 20 20 18 17
29 29 29 29 30 31 31 30 30 30 31 31 31 31 31 30 28 25 21 19 19 19 17 15 15 16 15 14 15 16 16 16 16 17 18 19 19 18 18 18 16 16
29 29 29 29 29 30 32 32 31 30 30 30 31 31 31 30 30 29 25 20 19 19 18 16 16 18 17 16 15 15 15 16 16 17 19 20 19 19 18 18 18 18
30 30 30 30 30 30 32 32 32 31 30 30 30 31 30 30 29 29 28 23 20 19 19 18 17 18 18 17 16 15 16 17 17 18 19 21 21 19 19 19 19 18
30 30 30 30 30 30 31 32 32 32 31 30 29 30 30 30 28 28 28 26 24 21 18 17 18 19 20 20 19 18 18 18 19 20 21 23 23 21 20 20 19 18
31 31 30 30 31 30 31 32 32 32 32 30 29 29 30 30 28 27 28 27 26 24 20 17 17 18 20 21 21 21 20 20 20 21 22 24 23 21 20 20 20 19
31 31 31 31 32 31 31 31 31 32 32 31 30 28 28 29 28 27 27 27 26 25 22 19 17 18 18 19 20 20 20 19 20 21 22 23 22 20 19 20 22 22
30 31 32 32 33 33 32 32 31 31 31 31 31 29 28 28 28 27 26 26 26 25 24 22 19 18 17 16 18 20 20 20 21 22 24 26 24 22 21 22 25 26
31 31 32 33 34 34 34 33 32 31 30 30 30 30 29 29 28 27 25 24 24 24 24 23 21 20 18 16 16 19 21 23 23 24 27 30 29 27 25 25 25 27
31 32 32 33 34 34 34 34 33 31 30 30 29 29 29 29 29 27 26 24 24 23 22 22 21 21 20 18 17 17 18 20 22 25 28 30 31 31 31 29 27 26
31 32 33 34 34 35 35 35 34 32 31 30 30 29 29 29 29 28 26 25 24 23 22 21 20 20 20 18 17 17 17 16 17 20 23 25 27 29 31 32 32 30
32 33 34 34 35 35 35 35 34 33 32 32 31 30 29 29 28 27 26 24 23 23 22 21 20 19 19 18 18 17 17 17 17 17 18 19 21 24 27 30 32 29
34 35 35 36 36 36 36 36 35 34 34 34 33 32 30 29 28 27 26 24 23 23 23 22 21 20 19 19 18 18 18 18 18 18 18 18 19 19 21 26 31 30
36 37 37 36 36 36 36 36 36 36 36 35 34 33 31 30 29 28 28 27 26 25 25 25 24 23 22 21 21 20 20 20 19 19 19 18 18 18 17 20 28 33
Wind_Direction
311 312 314 316 317 316 316 316 313 312 310 308 306 304 301 298 293 290 288 284 285 282 271 267 266 261 260 261 267 273 272 269 263 260 269 264 244 240 245 244 241 241
311 313 315 317 316 317 318 318 317 315 314 312 310 308 306 303 296 289 285 281 280 277 267 264 263 258 258 260 263 270 271 268 263 258 263 263 247 242 244 241 240 241
314 315 317 317 316 317 319 320 318 316 315 313 311 309 306 304 298 289 281 276 276 274 266 261 260 257 257 260 262 266 269 266 261 256 257 256 245 240 242 242 241 237
315 315 316 316 316 318 320 320 317 315 315 314 312 310 306 302 297 286 275 272 275 271 261 256 257 256 258 260 260 263 266 265 260 255 255 254 244 237 241 244 240 235
314 314 315 315 316 320 321 320 317 316 316 316 316 315 311 303 296 285 274 272 271 261 253 252 254 256 258 259 260 261 262 261 258 255 254 255 246 236 239 241 235 229
313 313 314 316 318 321 323 321 319 319 321 323 324 322 315 305 295 284 274 268 258 248 250 252 253 255 257 259 260 260 258 254 254 254 253 252 249 244 243 237 227 222
311 312 315 317 319 322 323 322 322 324 327 330 330 328 320 308 295 281 270 263 257 253 254 257 260 260 259 259 260 258 253 250 250 252 252 248 246 248 246 233 219 216
309 312 316 317 319 322 323 322 325 329 331 334 336 334 327 312 293 279 272 270 268 264 262 263 262 260 259 259 260 255 247 245 247 249 252 249 243 241 236 225 218 220
309 313 316 317 318 322 324 324 327 331 334 338 341 340 334 318 294 280 278 279 276 269 265 261 254 255 261 261 260 255 246 243 245 249 254 252 242 235 230 225 222 224
308 312 315 316 318 322 326 327 329 333 336 339 343 343 340 327 304 286 281 280 277 271 262 256 255 259 262 261 259 256 249 246 248 251 254 252 245 237 231 226 220 221
307 310 312 314 316 321 327 329 331 334 336 339 342 344 343 333 313 295 286 279 275 273 264 252 254 260 260 259 258 256 251 248 249 251 250 246 243 236 229 228 227 228
304 307 309 313 315 320 325 329 331 334 336 338 340 341 343 340 325 303 291 286 282 285 286 272 260 260 258 256 254 250 247 247 248 249 245 240 239 234 229 229 230 231
302 304 307 311 314 317 322 326 330 332 335 337 338 339 341 342 338 320 300 294 291 291 292 283 269 261 257 253 250 247 246 247 244 243 243 241 238 234 229 229 230 228
300 302 304 309 313 315 319 323 327 329 332 334 336 338 339 340 341 336 319 300 291 289 288 279 266 263 264 259 254 250 249 247 241 239 242 239 234 231 229 232 234 232
298 300 302 306 311 313 316 320 324 326 328 331 333 335 338 338 339 339 334 317 297 291 290 280 266 265 266 262 255 251 248 244 241 240 238 232 230 233 237 242 243 241
296 298 300 304 308 312 315 317 320 322 324 327 330 331 334 337 337 338 338 331 316 303 293 282 271 265 265 264 260 255 252 250 246 243 240 236 236 240 244 247 249 247
294 297 299 302 306 310 313 315 317 320 322 324 327 327 329 332 335 336 336 333 328 321 306 290 280 272 267 265 263 261 261 259 255 253 250 243 237 238 244 248 250 248
293 295 297 300 304 308 311 313 315 317 319 321 323 324 325 327 330 333 333 332 332 331 322 305 292 284 275 268 265 264 264 264 264 262 252 238 231 235 239 242 247 247
291 293 295 299 303 306 308 311 313 315 316 318 320 321 321 322 325 329 331 330 331 331 328 318 304 295 289 279 270 266 264 264 267 261 242 227 230 239 240 241 248 250
288 291 294 298 301 304 307 309 311 313 314 315 316 318 319 320 321 325 328 329 328 328 327 324 317 309 303 290 276 268 264 264 267 261 244 235 241 250 247 243 247 248
286 289 293 297 300 303 306 309 310 311 312 313 313 315 316 317 319 321 324 325 325 325 325 324 320 316 315 310 295 279 269 265 267 266 256 248 248 253 251 244 242 246
285 288 292 296 299 303 305 308 310 311 312 312 312 313 313 315 316 318 320 320 320 321 322 322 320 316 315 318 315 304 288 275 270 268 265 260 255 255 255 247 239 242
284 287 291 294 298 301 304 306 308 310 311 311 311 312 312 312 313 314 315 316 316 316 317 318 318 316 314 314 315 314 310 300 286 276 272 270 265 262 261 254 245 243
284 287 290 293 297 300 302 304 306 308 310 310 310 310 311 310 310 310 310 311 312 314 315 315 315 314 312 312 311 310 309 307 304 296 288 281 272 265 266 264 255 248
284 287 290 292 295 298 300 301 302 305 307 308 308 308 308 308 308 307 306 306 306 308 310 311 312 311 311 310 309 308 307 305 304 303 299 294 283 270 268 270 262 250
284 286 288 291 294 296 297 298 298 301 303 304 304 304 304 303 303 303 303 303 302 302 303 304 305 306 306 305 304 304 304 303 302 300 297 296 291 279 271 272 265 254
Height
5794 5792 5791 5789 5787 5785 5782 5780 5777 5775 5773 5771 5768 5765 5764 5761 5758 5757 5757 5757 5758 5758 5758 5758 5758 5759 5760 5761 5761 5761 5762 5762 5763 5764 5764 5764 5764 5765 5766 5767 5768 5769
5791 5790 5788 5786 5784 5781 5779 5776 5773 5771 5769 5767 5764 5761 5759 5757 5754 5752 5752 5752 5753 5752 5753 5754 5755 5756 5757 5757 5757 5757 5758 5759 5759 5760 5761 5762 5762 5762 5764 5764 5765 5766
5788 5786 5785 5783 5781 5778 5776 5773 5770 5767 5765 5763 5760 5757 5754 5752 5749 5747 5747 5747 5748 5748 5749 5751 5752 5753 5753 5753 5753 5754 5755 5756 5756 5757 5758 5759 5759 5760 5760 5761 5762 5763
5785 5784 5782 5780 5778 5775 5773 5770 5767 5764 5762 5759 5756 5752 5749 5746 5744 5743 5742 5742 5742 5743 5745 5747 5748 5749 5750 5750 5750 5751 5752 5754 5754 5754 5755 5756 5756 5757 5757 5758 5759 5761
5783 5781 5780 5777 5775 5773 5770 5768 5765 5762 5759 5756 5752 5747 5743 5740 5739 5738 5738 5738 5738 5739 5741 5743 5744 5745 5747 5747 5747 5748 5750 5751 5751 5751 5753 5753 5753 5754 5754 5755 5756 5757
5781 5779 5777 5775 5773 5770 5768 5765 5762 5759 5756 5751 5747 5742 5738 5736 5735 5735 5735 5735 5735 5736 5737 5739 5740 5742 5743 5744 5744 5746 5748 5749 5749 5749 5750 5750 5750 5751 5751 5752 5753 5754
5778 5777 5775 5772 5770 5768 5765 5763 5760 5756 5752 5748 5743 5739 5735 5733 5732 5732 5733 5734 5734 5734 5734 5736 5737 5738 5739 5740 5742 5743 5745 5746 5747 5747 5747 5747 5747 5748 5749 5749 5750 5751
5776 5774 5773 5770 5768 5766 5763 5761 5757 5754 5750 5746 5742 5737 5734 5732 5731 5731 5733 5734 5734 5733 5733 5734 5735 5736 5736 5738 5739 5740 5742 5743 5743 5744 5744 5744 5744 5745 5746 5747 5748 5749
5774 5772 5770 5768 5766 5764 5761 5758 5755 5752 5748 5745 5741 5737 5734 5732 5731 5731 5732 5734 5734 5733 5732 5732 5733 5734 5734 5735 5736 5738 5739 5740 5740 5741 5741 5742 5743 5743 5744 5745 5746 5747
5771 5769 5768 5766 5764 5762 5759 5756 5753 5750 5747 5744 5741 5738 5735 5732 5731 5731 5731 5732 5732 5731 5731 5731 5731 5732 5732 5733 5734 5735 5736 5737 5737 5738 5740 5741 5742 5742 5744 5744 5744 5746
5769 5767 5766 5764 5762 5760 5758 5755 5752 5749 5746 5744 5741 5738 5736 5733 5731 5730 5730 5731 5731 5730 5730 5729 5729 5729 5730 5731 5732 5733 5734 5734 5735 5736 5738 5739 5740 5741 5743 5743 5744 5746
5766 5765 5763 5762 5760 5758 5756 5754 5751 5748 5746 5744 5741 5739 5737 5734 5731 5730 5730 5730 5730 5729 5729 5729 5728 5728 5728 5729 5730 5730 5731 5732 5733 5734 5735 5736 5737 5739 5740 5741 5743 5745
5763 5762 5761 5760 5758 5756 5754 5752 5750 5748 5745 5744 5741 5739 5737 5734 5732 5730 5729 5729 5729 5728 5728 5728 5728 5727 5727 5728 5728 5729 5730 5730 5731 5733 5733 5734 5736 5737 5738 5739 5741 5742
5761 5760 5759 5758 5756 5754 5752 5751 5749 5747 5745 5743 5741 5738 5736 5734 5732 5731 5729 5728 5728 5727 5726 5727 5727 5726 5726 5727 5727 5728 5728 5729 5730 5731 5732 5733 5735 5736 5737 5738 5738 5739
5758 5757 5757 5756 5754 5752 5750 5748 5747 5745 5744 5742 5740 5738 5736 5734 5732 5731 5729 5728 5727 5726 5725 5725 5725 5725 5725 5726 5726 5726 5727 5727 5728 5729 5730 5731 5733 5734 5735 5736 5736 5737
5756 5755 5754 5753 5752 5750 5748 5746 5745 5744 5742 5741 5739 5737 5735 5734 5732 5730 5728 5727 5726 5725 5725 5724 5724 5724 5724 5724 5725 5725 5726 5726 5727 5728 5729 5730 5730 5731 5732 5733 5733 5734
5753 5753 5752 5751 5750 5748 5746 5744 5743 5741 5740 5739 5738 5736 5734 5733 5731 5730 5728 5727 5725 5724 5723 5723 5723 5722 5723 5723 5724 5724 5725 5725 5726 5727 5728 5728 5728 5729 5730 5730 5730 5731
5751 5750 5749 5749 5748 5746 5745 5743 5741 5739 5738 5737 5736 5735 5733 5731 5730 5729 5727 5726 5725 5723 5722 5721 5721 5720 5721 5721 5722 5723 5723 5724 5724 5724 5725 5725 5726 5727 5728 5728 5727 5728
5748 5747 5747 5746 5745 5744 5743 5741 5739 5738 5736 5735 5734 5733 5732 5730 5729 5728 5727 5725 5723 5723 5722 5721 5719 5719 5719 5720 5720 5720 5721 5721 5721 5721 5722 5722 5724 5725 5726 5726 5725 5725
5746 5745 5744 5743 5742 5741 5740 5739 5737 5736 5734 5733 5732 5730 5729 5728 5727 5726 5725 5724 5722 5721 5721 5720 5719 5718 5718 5718 5718 5718 5718 5719 5719 5720 5720 5721 5722 5723 5725 5724 5722 5722
5743 5742 5741 5740 5739 5738 5737 5736 5735 5733 5732 5731 5730 5728 5727 5725 5725 5724 5723 5723 5721 5720 5719 5719 5718 5718 5717 5716 5716 5716 5716 5717 5718 5719 5719 5719 5720 5720 5721 5721 5719 5718
5740 5740 5738 5737 5736 5735 5733 5732 5731 5730 5729 5728 5728 5727 5725 5723 5722 5722 5721 5721 5720 5719 5718 5718 5717 5716 5715 5715 5714 5714 5714 5714 5715 5716 5716 5716 5717 5717 5717 5717 5716 5714
5738 5737 5736 5734 5733 5732 5731 5729 5728 5727 5726 5725 5724 5724 5723 5722 5720 5720 5719 5718 5717 5716 5716 5716 5715 5714 5713 5713 5713 5713 5712 5712 5712 5712 5711 5712 5712 5713 5712 5713 5712 5712
5734 5734 5733 5732 5730 5729 5728 5726 5725 5724 5723 5722 5721 5721 5720 5720 5719 5718 5717 5716 5715 5714 5713 5713 5713 5712 5711 5711 5710 5710 5710 5710 5709 5709 5708 5708 5707 5707 5707 5708 5709 5709
5731 5730 5729 5728 5727 5726 5725 5723 5722 5721 5720 5719 5718 5717 5717 5717 5716 5715 5715 5714 5713 5712 5711 5710 5710 5710 5709 5709 5708 5708 5707 5707 5707 5706 5705 5704 5704 5703 5702 5703 5704 5705
5728 5727 5726 5725 5724 5723 5722 5721 5719 5718 5717 5716 5715 5714 5714 5713 5713 5712 5712 5711 5711 5710 5709 5708 5707 5707 5707 5706 5706 5706 5705 5704 5704 5703 5703 5702 5701 5700 5699 5699 5700 5701